Time,TemperatureF,DewpointF,PressureIn,WindDirection,WindDirectionDegrees,WindSpeedMPH,WindSpeedGustMPH,Humidity,HourlyPrecipIn,Conditions,Clouds,dailyrainin,SolarRadiationWatts/m^2,SoftwareType,DateUTC
2013-07-04 00:02:00,65.0,65.0,-100.00,SSE,167,2.0,3.0,100,0.00,,,0.00,0.000000,,2013-07-04 05:02:00,
2013-07-04 00:12:00,65.0,65.0,-100.00,SSE,167,2.0,3.0,100,0.00,,,0.00,0.000000,,2013-07-04 05:12:00,
2013-07-04 00:43:00,67.0,67.0,-100.00,East,94,2.0,5.0,100,0.00,,,0.00,0.000000,,2013-07-04 05:43:00,
2013-07-04 00:52:00,67.0,67.0,-100.00,East,94,2.0,5.0,100,0.00,,,0.00,0.000000,,2013-07-04 05:52:00,
2013-07-04 01:01:00,67.0,67.0,-100.00,East,94,2.0,5.0,100,0.00,,,0.00,0.000000,,2013-07-04 06:01:00,
2013-07-04 01:11:00,67.0,67.0,-100.00,East,94,2.0,5.0,100,0.00,,,0.00,0.000000,,2013-07-04 06:11:00,
2013-07-04 01:43:00,65.0,65.0,-100.00,WSW,248,0.0,3.0,100,0.00,,,0.00,0.000000,,2013-07-04 06:43:00,
2013-07-04 01:53:00,65.0,65.0,-100.00,WSW,248,0.0,3.0,100,0.00,,,0.00,0.000000,,2013-07-04 06:53:00,
2013-07-04 02:02:00,65.0,65.0,-100.00,WSW,248,0.0,3.0,100,0.00,,,0.00,0.000000,,2013-07-04 07:02:00,
2013-07-04 02:12:00,65.0,65.0,-100.00,WSW,248,0.0,3.0,100,0.00,,,0.00,0.000000,,2013-07-04 07:12:00,
2013-07-04 02:43:00,64.0,64.0,-100.00,South,191,0.0,2.0,100,0.00,,,0.00,0.000000,,2013-07-04 07:43:00,
2013-07-04 02:52:00,64.0,64.0,-100.00,South,191,0.0,2.0,100,0.00,,,0.00,0.000000,,2013-07-04 07:52:00,
2013-07-04 03:02:00,64.0,64.0,-100.00,South,191,0.0,2.0,100,0.00,,,0.00,0.000000,,2013-07-04 08:02:00,
2013-07-04 03:11:00,64.0,64.0,-100.00,South,191,0.0,2.0,100,0.00,,,0.00,0.000000,,2013-07-04 08:11:00,
2013-07-04 03:43:00,65.0,65.0,-100.00,NE,38,0.0,2.0,100,0.00,,,0.00,0.000000,,2013-07-04 08:43:00,
2013-07-04 03:53:00,65.0,65.0,-100.00,NE,38,0.0,2.0,100,0.00,,,0.00,0.000000,,2013-07-04 08:53:00,
2013-07-04 04:02:00,65.0,65.0,-100.00,NE,38,0.0,2.0,100,0.00,,,0.00,0.000000,,2013-07-04 09:02:00,
2013-07-04 04:11:00,65.0,65.0,-100.00,NE,38,0.0,2.0,100,0.00,,,0.00,0.000000,,2013-07-04 09:11:00,
2013-07-04 05:43:00,66.0,66.0,-100.00,East,84,0.0,2.0,100,-99.99,,,0.00,0.000000,,2013-07-04 10:43:00,
2013-07-04 05:53:00,66.0,66.0,-100.00,East,84,0.0,2.0,100,-99.99,,,0.00,0.000000,,2013-07-04 10:53:00,
2013-07-04 06:02:00,66.0,66.0,-100.00,East,84,0.0,2.0,100,-99.99,,,0.00,0.000000,,2013-07-04 11:02:00,
2013-07-04 06:11:00,66.0,66.0,-100.00,East,84,0.0,2.0,100,-99.99,,,0.00,0.000000,,2013-07-04 11:11:00,
2013-07-04 06:43:00,68.0,68.0,-100.00,ESE,102,0.0,3.0,100,0.00,,,0.00,2.000000,,2013-07-04 11:43:00,
2013-07-04 06:53:00,68.0,68.0,-100.00,ESE,102,0.0,3.0,100,0.00,,,0.00,2.000000,,2013-07-04 11:53:00,
2013-07-04 07:02:00,68.0,68.0,-100.00,ESE,102,0.0,3.0,100,0.00,,,0.00,2.000000,,2013-07-04 12:02:00,
2013-07-04 07:12:00,68.0,68.0,-100.00,ESE,102,0.0,3.0,100,0.00,,,0.00,2.000000,,2013-07-04 12:12:00,
2013-07-04 07:43:00,69.0,69.0,-100.00,East,89,0.0,2.0,100,0.02,,,0.02,20.000000,,2013-07-04 12:43:00,
2013-07-04 07:52:00,69.0,69.0,-100.00,East,89,0.0,2.0,100,0.02,,,0.02,20.000000,,2013-07-04 12:52:00,
2013-07-04 08:02:00,69.0,69.0,-100.00,East,89,0.0,2.0,100,0.02,,,0.02,20.000000,,2013-07-04 13:02:00,
2013-07-04 08:12:00,69.0,69.0,-100.00,East,89,0.0,2.0,100,0.02,,,0.02,20.000000,,2013-07-04 13:12:00,
2013-07-04 08:43:00,69.0,69.0,-100.00,East,101,3.0,7.0,100,0.01,,,0.03,29.000000,,2013-07-04 13:43:00,
2013-07-04 08:53:00,69.0,69.0,-100.00,East,101,3.0,7.0,100,0.01,,,0.03,29.000000,,2013-07-04 13:53:00,
2013-07-04 09:02:00,69.0,69.0,-100.00,East,101,3.0,7.0,100,0.01,,,0.03,29.000000,,2013-07-04 14:02:00,
2013-07-04 09:11:00,69.0,69.0,-100.00,East,101,3.0,7.0,100,0.01,,,0.03,29.000000,,2013-07-04 14:11:00,
2013-07-04 09:43:00,66.0,66.0,-100.00,East,97,5.0,11.0,99,0.49,,,0.52,24.000000,,2013-07-04 14:43:00,
2013-07-04 09:53:00,66.0,66.0,-100.00,East,97,5.0,11.0,99,0.49,,,0.52,24.000000,,2013-07-04 14:53:00,
2013-07-04 10:02:00,66.0,66.0,-100.00,East,97,5.0,11.0,99,0.49,,,0.52,24.000000,,2013-07-04 15:02:00,
2013-07-04 10:11:00,66.0,66.0,-100.00,East,97,5.0,11.0,99,0.49,,,0.52,24.000000,,2013-07-04 15:11:00,
2013-07-04 10:43:00,68.0,68.0,-100.00,SSE,154,2.0,5.0,99,0.17,,,0.69,66.000000,,2013-07-04 15:43:00,
2013-07-04 10:53:00,68.0,68.0,-100.00,SSE,154,2.0,5.0,99,0.17,,,0.69,66.000000,,2013-07-04 15:53:00,
2013-07-04 11:02:00,68.0,68.0,-100.00,SSE,154,2.0,5.0,99,0.17,,,0.69,66.000000,,2013-07-04 16:02:00,
2013-07-04 11:11:00,68.0,68.0,-100.00,SSE,154,2.0,5.0,99,0.17,,,0.69,66.000000,,2013-07-04 16:11:00,
2013-07-04 11:43:00,69.0,69.0,-100.00,ESE,107,3.0,7.0,99,0.06,,,0.75,82.000000,,2013-07-04 16:43:00,
2013-07-04 11:52:00,69.0,69.0,-100.00,ESE,107,3.0,7.0,99,0.06,,,0.75,82.000000,,2013-07-04 16:52:00,
2013-07-04 12:01:00,69.0,69.0,-100.00,ESE,107,3.0,7.0,99,0.06,,,0.75,82.000000,,2013-07-04 17:01:00,
2013-07-04 12:12:00,69.0,69.0,-100.00,ESE,107,3.0,7.0,99,0.06,,,0.75,82.000000,,2013-07-04 17:12:00,
2013-07-04 12:43:00,71.0,70.0,-100.00,ENE,76,6.0,9.0,96,0.02,,,0.77,189.000000,,2013-07-04 17:43:00,
2013-07-04 12:53:00,71.0,70.0,-100.00,ENE,76,6.0,9.0,96,0.02,,,0.77,189.000000,,2013-07-04 17:53:00,
2013-07-04 13:01:00,71.0,70.0,-100.00,ENE,76,6.0,9.0,96,0.02,,,0.77,189.000000,,2013-07-04 18:01:00,
2013-07-04 13:11:00,71.0,70.0,-100.00,ENE,76,6.0,9.0,96,0.02,,,0.77,189.000000,,2013-07-04 18:11:00,
2013-07-04 13:43:00,72.0,70.0,-100.00,ENE,73,4.0,11.0,92,0.00,,,0.77,277.000000,,2013-07-04 18:43:00,
2013-07-04 13:52:00,72.0,70.0,-100.00,ENE,73,4.0,11.0,92,0.00,,,0.77,277.000000,,2013-07-04 18:52:00,
2013-07-04 14:02:00,72.0,70.0,-100.00,ENE,73,4.0,11.0,92,0.00,,,0.77,277.000000,,2013-07-04 19:02:00,
2013-07-04 14:12:00,72.0,70.0,-100.00,ENE,73,4.0,11.0,92,0.00,,,0.77,277.000000,,2013-07-04 19:12:00,
2013-07-04 14:43:00,72.0,70.0,-100.00,East,83,5.0,9.0,94,0.01,,,0.78,252.000000,,2013-07-04 19:43:00,
2013-07-04 14:53:00,72.0,70.0,-100.00,East,83,5.0,9.0,94,0.01,,,0.78,252.000000,,2013-07-04 19:53:00,
2013-07-04 15:01:00,72.0,70.0,-100.00,East,83,5.0,9.0,94,0.01,,,0.78,252.000000,,2013-07-04 20:01:00,
2013-07-04 15:11:00,72.0,70.0,-100.00,East,83,5.0,9.0,94,0.01,,,0.78,252.000000,,2013-07-04 20:11:00,
2013-07-04 15:42:00,71.0,69.0,-100.00,ESE,121,4.0,10.0,95,0.00,,,0.78,155.000000,,2013-07-04 20:42:00,
2013-07-04 15:53:00,71.0,69.0,-100.00,ESE,121,4.0,10.0,95,0.00,,,0.78,155.000000,,2013-07-04 20:53:00,
2013-07-04 16:01:00,71.0,69.0,-100.00,ESE,121,4.0,10.0,95,0.00,,,0.78,155.000000,,2013-07-04 21:01:00,
2013-07-04 16:11:00,71.0,69.0,-100.00,ESE,121,4.0,10.0,95,0.00,,,0.78,155.000000,,2013-07-04 21:11:00,
2013-07-04 16:43:00,70.0,69.0,-100.00,ESE,113,4.0,13.0,96,0.06,,,0.84,133.000000,,2013-07-04 21:43:00,
2013-07-04 16:53:00,70.0,69.0,-100.00,ESE,113,4.0,13.0,96,0.06,,,0.84,133.000000,,2013-07-04 21:53:00,
2013-07-04 17:02:00,70.0,69.0,-100.00,ESE,113,4.0,13.0,96,0.06,,,0.84,133.000000,,2013-07-04 22:02:00,
2013-07-04 17:12:00,70.0,69.0,-100.00,ESE,113,4.0,13.0,96,0.06,,,0.84,133.000000,,2013-07-04 22:12:00,
2013-07-04 17:43:00,70.0,69.0,-100.00,East,91,4.0,7.0,96,0.00,,,0.84,132.000000,,2013-07-04 22:43:00,
2013-07-04 17:52:00,70.0,69.0,-100.00,East,91,4.0,7.0,96,0.00,,,0.84,132.000000,,2013-07-04 22:52:00,
2013-07-04 18:01:00,70.0,69.0,-100.00,East,91,4.0,7.0,96,0.00,,,0.84,132.000000,,2013-07-04 23:01:00,
2013-07-04 18:12:00,70.0,69.0,-100.00,East,91,4.0,7.0,96,0.00,,,0.84,132.000000,,2013-07-04 23:12:00,
2013-07-04 18:43:00,70.0,68.0,-100.00,East,94,5.0,8.0,95,0.00,,,0.84,92.000000,,2013-07-04 23:43:00,
2013-07-04 18:52:00,70.0,68.0,-100.00,East,94,5.0,8.0,95,0.00,,,0.84,92.000000,,2013-07-04 23:52:00,
2013-07-04 19:01:00,70.0,68.0,-100.00,East,94,5.0,8.0,95,0.00,,,0.84,92.000000,,2013-07-05 00:01:00,
2013-07-04 19:11:00,70.0,68.0,-100.00,East,94,5.0,8.0,95,0.00,,,0.84,92.000000,,2013-07-05 00:11:00,
2013-07-04 20:42:00,68.0,67.0,-100.00,East,95,4.0,8.0,96,-99.99,,,0.84,26.000000,,2013-07-05 01:42:00,
2013-07-04 20:52:00,68.0,67.0,-100.00,East,95,4.0,8.0,96,-99.99,,,0.84,26.000000,,2013-07-05 01:52:00,
2013-07-04 21:02:00,68.0,67.0,-100.00,East,95,4.0,8.0,96,-99.99,,,0.84,26.000000,,2013-07-05 02:02:00,
2013-07-04 21:11:00,68.0,67.0,-100.00,East,95,4.0,8.0,96,-99.99,,,0.84,26.000000,,2013-07-05 02:11:00,
2013-07-04 21:43:00,67.0,66.0,-100.00,East,92,3.0,8.0,97,0.00,,,0.84,0.000000,,2013-07-05 02:43:00,
2013-07-04 21:52:00,67.0,66.0,-100.00,East,92,3.0,8.0,97,0.00,,,0.84,0.000000,,2013-07-05 02:52:00,
2013-07-04 22:02:00,67.0,66.0,-100.00,East,92,3.0,8.0,97,0.00,,,0.84,0.000000,,2013-07-05 03:02:00,
2013-07-04 22:11:00,67.0,66.0,-100.00,East,92,3.0,8.0,97,0.00,,,0.84,0.000000,,2013-07-05 03:11:00,
2013-07-04 22:42:00,66.0,66.0,-100.00,East,80,2.0,7.0,99,0.00,,,0.84,0.000000,,2013-07-05 03:42:00,
2013-07-04 22:52:00,66.0,66.0,-100.00,East,80,2.0,7.0,99,0.00,,,0.84,0.000000,,2013-07-05 03:52:00,
2013-07-04 23:01:00,66.0,66.0,-100.00,East,80,2.0,7.0,99,0.00,,,0.84,0.000000,,2013-07-05 04:01:00,
2013-07-04 23:11:00,66.0,66.0,-100.00,East,80,2.0,7.0,99,0.00,,,0.84,0.000000,,2013-07-05 04:11:00,
2013-07-04 23:43:00,66.0,66.0,-100.00,East,80,2.0,5.0,100,0.00,,,0.84,0.000000,,2013-07-05 04:43:00,
2013-07-04 23:53:00,66.0,66.0,-100.00,East,80,2.0,5.0,100,0.00,,,0.84,0.000000,,2013-07-05 04:53:00,